TimePST,TemperatureF,Dew PointF,Humidity,Sea Level PressureIn,VisibilityMPH,Wind Direction,Wind SpeedMPH,Gust SpeedMPH,PrecipitationIn,Events,Conditions,WindDirDegrees,DateUTC
12:55 AM,57.0,10.0,15,30.09,10.0,ENE,8.1,-,N/A,,Clear,60,2013-01-22 08:55:00
1:55 AM,59.0,9.0,14,30.08,10.0,NE,11.5,-,N/A,,Clear,50,2013-01-22 09:55:00
2:55 AM,57.9,9.0,14,30.08,10.0,NE,5.8,-,N/A,,Clear,40,2013-01-22 10:55:00
3:55 AM,48.9,15.1,26,30.07,10.0,NNE,4.6,-,N/A,,Clear,20,2013-01-22 11:55:00
4:55 AM,55.9,9.0,15,30.07,10.0,ENE,9.2,-,N/A,,Clear,60,2013-01-22 12:55:00
5:55 AM,54.0,10.0,17,30.09,10.0,ENE,4.6,-,N/A,,Clear,70,2013-01-22 13:55:00
6:55 AM,55.0,10.9,17,30.09,10.0,ENE,10.4,-,N/A,,Clear,60,2013-01-22 14:55:00
7:55 AM,60.1,12.9,16,30.10,10.0,NE,6.9,-,N/A,,Clear,50,2013-01-22 15:55:00
8:55 AM,66.9,17.1,15,30.10,10.0,ENE,6.9,-,N/A,,Clear,60,2013-01-22 16:55:00
9:55 AM,75.0,12.0,9,30.11,10.0,East,10.4,-,N/A,,Clear,80,2013-01-22 17:55:00
10:55 AM,79.0,8.1,7,30.10,10.0,ENE,13.8,-,N/A,,Clear,60,2013-01-22 18:55:00
11:55 AM,82.0,7.0,6,30.06,10.0,East,12.7,-,N/A,,Clear,80,2013-01-22 19:55:00
12:55 PM,75.9,30.9,19,30.05,10.0,SW,9.2,-,N/A,,Clear,220,2013-01-22 20:55:00
1:55 PM,75.0,28.9,18,30.04,10.0,SSW,10.4,-,N/A,,Clear,210,2013-01-22 21:55:00
2:55 PM,72.0,34.0,25,30.04,10.0,West,5.8,-,N/A,,Clear,260,2013-01-22 22:55:00
3:55 PM,66.0,37.0,34,30.06,10.0,West,6.9,-,N/A,,Clear,260,2013-01-22 23:55:00
4:55 PM,64.9,32.0,29,30.06,10.0,Calm,Calm,-,N/A,,Clear,0,2013-01-23 00:55:00
5:55 PM,60.1,37.9,44,30.07,10.0,East,5.8,-,N/A,,Clear,80,2013-01-23 01:55:00
6:55 PM,57.0,35.1,44,30.08,10.0,ENE,5.8,-,N/A,,Clear,60,2013-01-23 02:55:00
7:55 PM,57.9,28.0,32,30.06,10.0,ENE,6.9,-,N/A,,Clear,60,2013-01-23 03:55:00
8:55 PM,57.9,25.0,28,30.08,10.0,Calm,Calm,-,N/A,,Clear,0,2013-01-23 04:55:00
9:55 PM,60.1,23.0,24,30.07,10.0,East,6.9,-,N/A,,Clear,80,2013-01-23 05:55:00
10:55 PM,61.0,19.0,20,30.08,10.0,ENE,6.9,-,N/A,,Clear,70,2013-01-23 06:55:00
11:55 PM,62.1,18.0,18,30.07,10.0,ENE,4.6,-,N/A,,Clear,60,2013-01-23 07:55:00